Location: Arroyo Grande
(40.2671°N, 4.2512°W)
Time: 00:59:07
(UTC+00:00)

Cosmos 2278 Rocket - Pass Details

Date: 30 September 2023
Orbit: 842 x 844 km, 71.0° (Epoch: 03 December)

Event Time Altitude Azimuth Distance (km) Brightness Sun altitude
Rises 19:28:06 0° 339° (NNW) 3,410 5.8 -17.3°
Reaches altitude 10° 19:30:36 10° 343° (NNW) 2,471 5.0 -17.8°
Maximum altitude 19:36:13 61° 64° (ENE) 957 2.2 -18.8°
Enters shadow 19:38:54 30° 133° (SE) 1,454 3.0 -19.3°
